Regional Weather Roundup
Issued by NWS San Angelo, TX

Home | Current Version | Previous Version | Text Only | Print | Product List | Glossary On
Versions: 1 2 3 4 5 6 7 8 9 10 11 12 13 14 15 16 17 18 19 20 21 22 23 24 25 26 27 28 29 30 31 32 33 34 35 36 37 38 39 40 41 42 43 44 45 46 47 48 49 50
000
ASUS44 KSJT 011358
RWRSJT
WEST CENTRAL TEXAS REGIONAL WEATHER ROUNDUP
NATIONAL WEATHER SERVICE SAN ANGELO TX
900 AM CDT SAT AUG 01 2015

NOTE: "FAIR" INDICATES FEW OR NO CLOUDS BELOW 12,000 FEET WITH NO
SIGNIFICANT WEATHER AND/OR OBSTRUCTIONS TO VISIBILITY.

TXZ049-054-064>066-071>073-076>078-098-099-113-114-127-128-139-140-
154-155-168>170-011500
...LOCATIONS ACROSS WEST CENTRAL TEXAS...

CITY           SKY/WX    TMP DP  RH WIND       PRES   REMARKS
SAN ANGELO     SUNNY     80  68  66 NE5       30.09R
ABILENE        PTSUNNY   77  67  71 NE6       30.12R
DYESS AFB      NOT AVBL
JUNCTION       SUNNY     78  66  66 CALM      30.08R
SWEETWATER     NOT AVBL
BROWNWOOD      NOT AVBL
COLEMAN        NOT AVBL
SONORA         NOT AVBL
OZONA          NOT AVBL
BRADY          NOT AVBL
$$

TEXAS PANHANDLE/OKLAHOMA PANHANDLE

CITY           SKY/WX    TMP DP  RH WIND       PRES   REMARKS
AMARILLO       LGT RAIN  67  65  93 S5        30.21S
BORGER         LGT RAIN  69  67  93 CALM      30.18S
CANADIAN       NOT AVBL
DALHART        PTSUNNY   70  67  90 SW8       30.19S
DUMAS          NOT AVBL
GUYMON         NOT AVBL
HEREFORD       NOT AVBL
PAMPA          NOT AVBL
PERRYTON       NOT AVBL
$$

SOUTHERN PANHANDLE/SOUTH PLAINS/ROLLING PLAINS

CITY           SKY/WX    TMP DP  RH WIND       PRES   REMARKS
LUBBOCK        CLOUDY    70  65  84 NE10      30.19R
SNYDER         NOT AVBL
CHILDRESS      LGT RAIN  70  69  97 SW7       30.13F FOG
SEMINOLE       NOT AVBL
$$

PERMIAN BASIN

CITY           SKY/WX    TMP DP  RH WIND       PRES   REMARKS
MIDLAND        SUNNY     78  66  66 SE5       30.12R
ODESSA         SUNNY     80  63  55 MISG      30.14R
WINK           SUNNY     80  63  55 SE12      30.10R
$$

FAR WEST/SOUTHWEST MOUNTAINS/TRANS PECOS

CITY           SKY/WX    TMP DP  RH WIND       PRES   REMARKS
ALPINE         NOT AVBL
DRYDEN           N/A     82  68  62 NW6       30.06R
EL PASO        MOSUNNY   77  60  55 N13       30.15R
FORT STOCKTON  SUNNY     78  64  61 S8        30.11R
GUADALUPE PASS MOSUNNY   74  57  55 E6        30.28R
MARFA          NOT AVBL
PECOS          NOT AVBL
$$

DALLAS/FORT WORTH METROPLEX

CITY           SKY/WX    TMP DP  RH WIND       PRES   REMARKS
DFW AIRPORT    PTSUNNY   84  62  47 SE3       30.06R
FTW MEACHAM    CLOUDY    84  62  47 E5        30.07R
DAL-EXECUTIVE  SUNNY     83  62  49 SE7       30.06R
GRAND PRAIRIE  SUNNY     82  64  54 E5        30.08R
ADDISON        NOT AVBL
MESQUITE       SUNNY     82  63  51 E6        30.06R
LANCASTER      NOT AVBL
$$

NORTH CENTRAL TEXAS

CITY           SKY/WX    TMP DP  RH WIND       PRES   REMARKS
SHRMAN/DENISON NOT AVBL
GAINESVILLE    NOT AVBL
BRIDGEPORT     NOT AVBL
DENTON         PTSUNNY   82  65  56 CALM      30.07R
WAXAHACHIE     NOT AVBL
GRANBURY       NOT AVBL
$$

WESTERN NORTH TEXAS

CITY           SKY/WX    TMP DP  RH WIND       PRES   REMARKS
WICHITA FALLS  CLOUDY    76  71  85 N3        30.10R
VERNON         NOT AVBL
BRECKENRIDGE   NOT AVBL
COMANCHE       NOT AVBL
$$

CENTRAL AND SOUTH CENTRAL TEXAS

CITY           SKY/WX    TMP DP  RH WIND       PRES   REMARKS
AUSTIN/BERGSTM PTSUNNY   79  65  62 NE7       30.01R
WACO           SUNNY     81  62  52 E6        30.05R
HILLSBORO      NOT AVBL
TEMPLE         NOT AVBL
KILLEEN-GRAY   NOT AVBL
FORT HOOD      NOT AVBL
GEORGETOWN     SUNNY     81  63  54 NE7       30.03R
LAGO VISTA     NOT AVBL
SAN MARCOS     SUNNY     81  66  61 NE8       30.02R
NEW BRAUNFELS  SUNNY     83  68  60 NE7       29.99R
RANDOLPH AFB   NOT AVBL
SAN ANTONIO    MOSUNNY   83  69  62 NE8       30.01R
STINSON        MOSUNNY   84  71  65 NE6       29.98R
PLEASANTON     NOT AVBL
LA GRANGE      NOT AVBL
GIDDINGS       NOT AVBL
$$

EAST TEXAS

CITY           SKY/WX    TMP DP  RH WIND       PRES   REMARKS
PARIS          NOT AVBL
CLARKSVILLE    NOT AVBL
TYLER          SUNNY     82  65  56 E6        30.05R
LONGVIEW       MOSUNNY   82  66  58 E8        30.03R
PALESTINE      NOT AVBL
NACOGDOCHES    NOT AVBL
$$

TEXAS HILL COUNTRY AND EDWARDS PLATEAU

CITY           SKY/WX    TMP DP  RH WIND       PRES   REMARKS
LLANO          NOT AVBL
HORSESHOE BAY  NOT AVBL
KERRVILLE      NOT AVBL
FREDERICKSBRG  NOT AVBL
ROCKSPRINGS    NOT AVBL
HONDO          SUNNY     82  72  71 NE10      30.03R
UVALDE         NOT AVBL
DEL RIO        SUNNY     83  69  62 E5        29.99R
$$

SOUTHEAST TEXAS

CITY           SKY/WX    TMP DP  RH WIND       PRES   REMARKS
COLLEGE STN    SUNNY     81  64  56 E7        30.01R
CALDWELL       NOT AVBL
CROCKETT       NOT AVBL
BRENHAM        NOT AVBL
HUNTSVILLE     SUNNY     79  67  66 E5        30.01R
CONROE         SUNNY     81  64  56 E7        30.01R
HOUSTON BUSH   MOSUNNY   83  66  56 E9        29.99R
HOUSTON HOBBY  PTSUNNY   85  66  53 NE9       29.98R
PERLAND        SUNNY     84  66  54 NE10      29.99R
WHARTON        NOT AVBL
$$

THE UPPER TEXAS COAST

CITY           SKY/WX    TMP DP  RH WIND       PRES   REMARKS
ORANGE         NOT AVBL
PORT ARTHUR    SUNNY     83  68  60 E10       29.97R
GALVESTON      SUNNY     85  70  60 NE12      29.97R
ANGLETON       SUNNY     84  70  62 NE8       29.97R
BAY CITY       NOT AVBL
$$

TEXAS COASTAL BEND, RIO GRANDE PLAINS DEEP SOUTH TEXAS

CITY           SKY/WX    TMP DP  RH WIND       PRES   REMARKS
VICTORIA       SUNNY     82  77  84 NE8       29.98R
BEEVILLE       NOT AVBL
ROCKPORT       SUNNY     83  74  74 N5        29.96R
PORT ARANSAS   NOT AVBL
PORT LAVACA    NOT AVBL
CORPUS CHRISTI PTSUNNY   82  74  76 NE5       29.97R
KINGSVILLE NAS SUNNY     80  76  87 N6        29.98R
COTULLA        SUNNY     81  73  76 SE3       29.98S
LAREDO         NOT AVBL
BROWNSVILLE    SUNNY     83  76  79 N3        29.95R
PORT ISABEL    NOT AVBL
HEBBRONVILLE   NOT AVBL
MCALLEN        SUNNY     87  75  67 NE3       29.96R
WESLACO        NOT AVBL
FALFURRIAS     NOT AVBL
EDINBURG       NOT AVBL
$$


USA.gov is the U.S. government's official web portal to all federal, state and local government web resources and services.